[[{"header":{"parameterUnit":"m.s-1","parameterCategory":1,"la1":30.2991,"la2":30.254,"lo1":-89.0895,"lo2":-89.0444,"dy":0.0017,"dx":0.0017,"nx":28,"ny":28,"refTime":"2025-08-03T09:00:00:Z","depth":0,"parameterNumber":2,"parameterNumberName":"U-component_of_WINDS"},"data":[0,0,0,0,0,0,0,0,0,0,0,0,0,0,0,0,0,0,0,0,0,0,0,0,0,0,0,0,0,0,0,0,0,0,0,0,0,0,0,0,0,0,0,0,0,0,0,0,0,0,0,0,0,0,0,0,0,0,-0.0745,-0.0745,0,-0.0738,-0.0738,-0.0738,-0.0705,-0.0704,-0.0703,-0.0703,-0.0697,-0.0698,-0.0699,0,0,0,0,0,0,0,0,0,0,0,0,0,-0.0732,-0.0733,-0.0746,-0.0745,-0.0745,-0.0738,-0.0738,-0.0738,-0.0705,-0.0704,-0.0703,-0.0702,-0.0697,-0.0698,-0.0699,0,0,0,0,0,0,0,0,0,0,0,0,0,-0.0733,-0.0733,-0.0746,-0.0728,-0.0726,-0.0738,-0.0738,-0.0738,-0.0705,-0.0704,-0.0703,-0.0702,-0.0697,-0.0698,-0.0699,-0.0727,0,0,-0.0701,-0.0702,0,0,0,0,0,0,0,0,-0.0733,-0.0733,-0.0731,-0.0729,-0.0727,-0.0721,-0.0731,-0.0734,-0.0705,-0.0713,-0.0703,-0.0701,-0.0706,-0.0706,-0.0708,-0.0727,-0.0727,-0.0701,-0.0702,-0.0702,-0.0703,0,0,0,0,0,0,0,-0.0733,-0.0733,-0.0743,-0.0731,-0.0729,-0.0721,-0.0719,-0.0731,-0.0717,-0.0713,-0.071,-0.0709,-0.0705,-0.0707,-0.0707,-0.0727,-0.0701,-0.0702,-0.0703,-0.0703,-0.0766,-0.0767,0,0,0,0,0,0,-0.0735,-0.0734,-0.0743,-0.0742,-0.0727,-0.0722,-0.072,-0.0724,-0.0716,-0.0714,-0.071,-0.0708,-0.0706,-0.0706,-0.0707,-0.0738,-0.0702,-0.0703,-0.0704,-0.0765,-0.0766,-0.0767,0,0,0,0,0,0,-0.0735,-0.0736,-0.0743,-0.0737,-0.0737,-0.0723,-0.0728,-0.0725,-0.0726,-0.0715,-0.0712,-0.0715,-0.0705,-0.0706,-0.0721,-0.0737,-0.0704,-0.0704,-0.0763,-0.0765,-0.0767,-0.0802,0,0,0,0,0,0,-0.0735,-0.0736,-0.0747,-0.0738,-0.0738,-0.0758,-0.0729,-0.0725,-0.0727,-0.0724,-0.0718,-0.0716,-0.0704,-0.072,-0.0722,-0.0738,-0.0705,-0.0762,-0.0764,-0.0766,-0.0799,-0.0804,-0.0809,0,0,0,0,0,-0.0734,-0.0759,-0.0748,-0.0749,-0.0751,-0.0759,-0.0759,-0.0744,-0.0729,-0.074,-0.0731,-0.0716,-0.0735,-0.0722,-0.0724,-0.0741,-0.0761,-0.0763,-0.0766,-0.0797,-0.0803,-0.0809,0,0,0,0,0,0,-0.0773,-0.0757,-0.0745,-0.0767,-0.0764,-0.0753,-0.0767,-0.0752,-0.0755,-0.0752,-0.0733,-0.0732,-0.075,-0.0747,-0.0733,-0.0766,-0.0745,-0.0748,-0.0768,-0.0774,-0.0779,-0.078,-0.0706,0,0,0,0,0,-0.0783,-0.079,-0.0777,-0.0798,-0.0796,-0.0782,-0.0785,-0.0773,-0.077,-0.0769,-0.0762,-0.076,-0.0765,-0.0769,-0.0774,-0.0798,-0.0795,-0.081,-0.0815,-0.0819,-0.0822,-0.0832,-0.0838,-0.0776,-0.0776,-0.0776,0,0,-0.0806,-0.0799,-0.0805,-0.0805,-0.0801,-0.0809,-0.0781,-0.0791,-0.0797,-0.0771,-0.0785,-0.0779,-0.0776,-0.0795,-0.0803,-0.0793,-0.0838,-0.0822,-0.0825,-0.0826,-0.0835,-0.0841,-0.0846,-0.0777,-0.0777,-0.0777,0,0,-0.0852,-0.0847,-0.0863,-0.0859,-0.0853,-0.0842,-0.0846,-0.0836,-0.0831,-0.0844,-0.0824,-0.083,-0.084,-0.0837,-0.0837,-0.0877,-0.0863,-0.0879,-0.0906,-0.0916,-0.0921,-0.0925,-0.0938,-0.0943,-0.0882,-0.0882,-0.0882,0,-0.0882,-0.0892,-0.0873,-0.0883,-0.0883,-0.0858,-0.0873,-0.087,-0.0867,-0.0867,-0.0855,-0.0864,-0.086,-0.0877,-0.0887,-0.0888,-0.0891,-0.0881,-0.0921,-0.0925,-0.0929,-0.0942,-0.0947,-0.0884,-0.0884,-0.0884,-0.0884,0,-0.0928,-0.0935,-0.0948,-0.0943,-0.0944,-0.0958,-0.094,-0.0944,-0.0931,-0.0921,-0.0934,-0.0927,-0.0928,-0.0931,-0.092,-0.0946,-0.0939,-0.0924,-0.0903,-0.0937,-0.0949,-0.0953,-0.0887,-0.0886,-0.0886,-0.0885,0,0,-0.1001,-0.0982,-0.0987,-0.0983,-0.0973,-0.0978,-0.0989,-0.0988,-0.0991,-0.0988,-0.0996,-0.1003,-0.0988,-0.0988,-0.0975,-0.0984,-0.1014,-0.0968,-0.0967,-0.0976,-0.1041,-0.1053,-0.1059,-0.1004,-0.1005,-0.1005,-0.1041,0,-0.1044,-0.106,-0.1042,-0.1063,-0.1068,-0.1042,-0.105,-0.1045,-0.1035,-0.1038,-0.1028,-0.1032,-0.1013,-0.1012,-0.1019,-0.1009,-0.1027,-0.1006,-0.1011,-0.1011,-0.1013,-0.1065,-0.1078,-0.1112,-0.1046,-0.1046,-0.1047,0,-0.1097,-0.1094,-0.1115,-0.11,-0.1102,-0.111,-0.1107,-0.111,-0.1102,-0.1094,-0.1092,-0.1076,-0.1084,-0.1062,-0.1073,-0.1059,-0.1059,-0.1054,-0.1055,-0.1056,-0.1032,-0.1067,-0.1123,-0.1128,-0.1054,-0.1053,-0.1053,0,-0.1147,-0.1149,-0.116,-0.1158,-0.1142,-0.1148,-0.1141,-0.1132,-0.1132,-0.1128,-0.1128,-0.1126,-0.1126,-0.1124,-0.1107,-0.1093,-0.112,-0.1097,-0.1113,-0.1114,-0.1121,-0.1121,-0.1179,-0.1121,-0.1121,-0.1121,-0.1121,0,-0.1198,-0.1211,-0.1182,-0.119,-0.1203,-0.1181,-0.1195,-0.1186,-0.1177,-0.1182,-0.1159,-0.1164,-0.1141,-0.1143,-0.113,-0.114,-0.114,-0.1133,-0.113,-0.1136,-0.1136,-0.1136,-0.1134,-0.1122,-0.1122,-0.1122,-0.1121,0,-0.1257,-0.1238,-0.1249,-0.1231,-0.1227,-0.1238,-0.1222,-0.1228,-0.1215,-0.1221,-0.1221,-0.1201,-0.1202,-0.1184,-0.1183,-0.1173,-0.1189,-0.1181,-0.1192,-0.1189,-0.1206,-0.1205,-0.1266,-0.1272,-0.1211,-0.1212,-0.1212,0,-0.1291,-0.13,-0.1282,-0.1283,-0.1277,-0.1279,-0.1277,-0.1255,-0.1254,-0.1244,-0.125,-0.1249,-0.1247,-0.1249,-0.1235,-0.1232,-0.1224,-0.1245,-0.1224,-0.1228,-0.1224,-0.1223,-0.1223,-0.125,-0.1251,-0.1252,-0.1252,0,-0.1353,-0.1342,-0.1341,-0.1335,-0.1334,-0.1329,-0.1323,-0.1325,-0.13,-0.13,-0.13,-0.1298,-0.1293,-0.1292,-0.1286,-0.1279,-0.1261,-0.1259,-0.1262,-0.1269,-0.1274,-0.1271,-0.1204,-0.1258,-0.1257,-0.1257,-0.1257,-0.1257,-0.14,-0.1406,-0.1394,-0.1392,-0.1384,-0.1378,-0.1381,-0.1367,-0.1366,-0.1361,-0.1347,-0.1348,-0.1337,-0.1326,-0.132,-0.1321,-0.131,-0.1316,-0.1317,-0.1319,-0.1321,-0.1273,-0.132,-0.1319,-0.1319,-0.1319,-0.1319,0,-0.1461,-0.145,-0.1449,-0.1439,-0.1437,-0.1418,-0.1409,-0.1409,-0.141,-0.14,-0.1397,-0.1396,-0.1393,-0.1377,-0.1372,-0.1375,-0.1366,-0.1374,-0.1374,-0.1373,-0.1332,-0.1329,-0.1381,-0.1381,-0.1381,-0.1381,-0.1381,-0.1381,-0.1492,-0.15,-0.1487,-0.1491,-0.148,-0.148,-0.1476,-0.147,-0.1461,-0.146,-0.1457,-0.1445,-0.1432,-0.1426,-0.1422,-0.1417,-0.1416,-0.1427,-0.1419,-0.1382,-0.1376,-0.137,-0.1367,-0.1427,-0.1427,-0.146,-0.146,-0.146]},{"header":{"parameterUnit":"m.s-1","parameterCategory":1,"la1":30.2991,"la2":30.254,"lo1":-89.0895,"lo2":-89.0444,"dy":0.0017,"dx":0.0017,"nx":28,"ny":28,"refTime":"2025-08-03T09:00:00:Z","depth":0,"parameterNumber":3,"parameterNumberName":"V-component_of_WINDS"},"data":[0,0,0,0,0,0,0,0,0,0,0,0,0,0,0,0,0,0,0,0,0,0,0,0,0,0,0,0,0,0,0,0,0,0,0,0,0,0,0,0,0,0,0,0,0,0,0,0,0,0,0,0,0,0,0,0,0,0,-3.4281,-3.4279,0,-3.4101,-3.4099,-3.4097,-3.3955,-3.3953,-3.3952,-3.3951,-3.3762,-3.3758,-3.3754,0,0,0,0,0,0,0,0,0,0,0,0,0,-3.4496,-3.4493,-3.4281,-3.4279,-3.4277,-3.4101,-3.4099,-3.4096,-3.3955,-3.3953,-3.3952,-3.395,-3.3763,-3.3759,-3.3754,0,0,0,0,0,0,0,0,0,0,0,0,0,-3.4368,-3.4492,-3.4282,-3.4185,-3.4175,-3.4102,-3.4098,-3.4095,-3.3955,-3.3953,-3.3951,-3.3949,-3.3764,-3.3759,-3.3753,-3.376,0,0,-3.3736,-3.3734,0,0,0,0,0,0,0,0,-3.4376,-3.436,-3.4202,-3.4192,-3.418,-3.4048,-3.4105,-3.3983,-3.3956,-3.4039,-3.3951,-3.3948,-3.3858,-3.3845,-3.3815,-3.3751,-3.3743,-3.3736,-3.3732,-3.373,-3.3728,0,0,0,0,0,0,0,-3.4385,-3.4367,-3.421,-3.4199,-3.4186,-3.4149,-3.4128,-3.4081,-3.3962,-3.4031,-3.402,-3.4001,-3.3852,-3.3821,-3.381,-3.374,-3.3736,-3.3731,-3.3727,-3.3725,-3.3666,-3.3668,0,0,0,0,0,0,-3.4409,-3.4376,-3.4215,-3.4204,-3.4275,-3.4146,-3.4124,-3.4092,-3.3962,-3.3941,-3.4003,-3.3995,-3.3832,-3.3817,-3.3803,-3.3798,-3.373,-3.3725,-3.3721,-3.3664,-3.3667,-3.3669,0,0,0,0,0,0,-3.4415,-3.4397,-3.4223,-3.4287,-3.4262,-3.4145,-3.4111,-3.409,-3.4059,-3.3941,-3.3919,-3.3994,-3.383,-3.3811,-3.3771,-3.379,-3.3722,-3.3717,-3.3662,-3.3665,-3.3668,-3.3792,0,0,0,0,0,0,-3.4421,-3.4399,-3.4403,-3.4288,-3.4259,-3.4196,-3.4113,-3.4088,-3.405,-3.4038,-3.3927,-3.3906,-3.3827,-3.378,-3.3765,-3.3781,-3.3713,-3.366,-3.3664,-3.3667,-3.3785,-3.3798,-3.3809,0,0,0,0,0,-3.443,-3.4445,-3.4404,-3.4385,-3.4261,-3.4198,-3.4181,-3.409,-3.4053,-3.4053,-3.3977,-3.391,-3.3791,-3.3777,-3.3759,-3.3773,-3.3658,-3.3663,-3.3667,-3.378,-3.3796,-3.3809,0,0,0,0,0,0,-3.4564,-3.4428,-3.4381,-3.436,-3.4292,-3.4174,-3.4172,-3.4111,-3.405,-3.4042,-3.393,-3.3906,-3.3877,-3.3821,-3.3809,-3.377,-3.3715,-3.3716,-3.3808,-3.3822,-3.3833,-3.3846,-3.3708,0,0,0,0,0,-3.4592,-3.4554,-3.4436,-3.4429,-3.4397,-3.4291,-3.426,-3.4196,-3.412,-3.409,-3.401,-3.3938,-3.3883,-3.3849,-3.3793,-3.3777,-3.3748,-3.3777,-3.3789,-3.38,-3.3801,-3.3783,-3.3793,-3.3682,-3.3682,-3.3682,0,0,-3.4648,-3.4569,-3.4551,-3.4454,-3.4393,-3.4353,-3.4268,-3.423,-3.4198,-3.4083,-3.404,-3.3979,-3.389,-3.3861,-3.3844,-3.3814,-3.3825,-3.3805,-3.3814,-3.3809,-3.3788,-3.3799,-3.3808,-3.3685,-3.3684,-3.3684,0,0,-3.4728,-3.4667,-3.4652,-3.4592,-3.4501,-3.443,-3.4427,-3.4317,-3.4273,-3.4228,-3.4139,-3.4099,-3.4009,-3.3947,-3.3905,-3.3958,-3.3893,-3.3943,-3.4005,-3.3989,-3.3998,-3.4005,-3.402,-3.4027,-3.3945,-3.3945,-3.3946,0,-3.4809,-3.4747,-3.4652,-3.4618,-3.4576,-3.4471,-3.4452,-3.4399,-3.4294,-3.4266,-3.4234,-3.4115,-3.4048,-3.4001,-3.4013,-3.3984,-3.3973,-3.3955,-3.4005,-3.4011,-3.4016,-3.4029,-3.4035,-3.3952,-3.3951,-3.395,-3.395,0,-3.4849,-3.4807,-3.4805,-3.4706,-3.4664,-3.4639,-3.4536,-3.4505,-3.4443,-3.4375,-3.4327,-3.4243,-3.4166,-3.415,-3.409,-3.4092,-3.4076,-3.4026,-3.3968,-3.4035,-3.4045,-3.4049,-3.3961,-3.3959,-3.3957,-3.3955,0,0,-3.501,-3.4857,-3.4858,-3.4809,-3.47,-3.4664,-3.4632,-3.4557,-3.453,-3.4461,-3.4428,-3.4352,-3.4304,-3.4255,-3.4187,-3.4174,-3.4216,-3.4124,-3.412,-3.4141,-3.4208,-3.4245,-3.4252,-3.4173,-3.4173,-3.4174,-3.4214,0,-3.5071,-3.501,-3.4921,-3.4887,-3.4844,-3.4742,-3.4713,-3.4641,-3.4576,-3.4528,-3.4454,-3.4401,-3.4343,-3.4312,-3.4294,-3.4215,-3.4227,-3.4211,-3.4138,-3.4136,-3.4161,-3.4258,-3.4297,-3.434,-3.4218,-3.4219,-3.4219,0,-3.5135,-3.507,-3.5033,-3.4923,-3.4901,-3.4878,-3.4799,-3.4756,-3.467,-3.4623,-3.4567,-3.4493,-3.445,-3.44,-3.4336,-3.4327,-3.4291,-3.4247,-3.4246,-3.4234,-3.418,-3.4245,-3.4352,-3.4357,-3.4225,-3.4225,-3.4224,0,-3.5252,-3.5156,-3.512,-3.5082,-3.4954,-3.4938,-3.4884,-3.4796,-3.4755,-3.4686,-3.4657,-3.4585,-3.4544,-3.4487,-3.4393,-3.4366,-3.4338,-3.4281,-3.4294,-3.4297,-3.4292,-3.4293,-3.4391,-3.4274,-3.4274,-3.4274,-3.4274,0,-3.5328,-3.5308,-3.517,-3.5148,-3.5121,-3.5017,-3.4993,-3.4928,-3.4851,-3.4811,-3.4718,-3.4683,-3.4563,-3.4512,-3.4438,-3.4394,-3.4378,-3.4335,-3.4315,-3.4342,-3.4347,-3.4316,-3.4309,-3.4276,-3.4275,-3.4275,-3.4275,0,-3.5454,-3.5362,-3.5314,-3.5196,-3.5166,-3.5151,-3.5047,-3.502,-3.4948,-3.4899,-3.4881,-3.4768,-3.4703,-3.4604,-3.451,-3.446,-3.4427,-3.4396,-3.4456,-3.4443,-3.4461,-3.4459,-3.454,-3.4543,-3.4428,-3.443,-3.4431,0,-3.5508,-3.549,-3.5369,-3.5336,-3.5285,-3.5234,-3.5191,-3.5088,-3.5046,-3.4945,-3.4929,-3.4857,-3.4794,-3.4694,-3.4601,-3.4527,-3.4492,-3.4525,-3.448,-3.4506,-3.4488,-3.4489,-3.4484,-3.4535,-3.4537,-3.4538,-3.454,0,-3.5612,-3.5566,-3.5509,-3.5434,-3.5386,-3.5322,-3.5254,-3.5232,-3.5112,-3.507,-3.5003,-3.4954,-3.4856,-3.4784,-3.4697,-3.4637,-3.4567,-3.4555,-3.4553,-3.4579,-3.4613,-3.4591,-3.4481,-3.4553,-3.4552,-3.4551,-3.455,-3.4549,-3.57,-3.5678,-3.5588,-3.5526,-3.5464,-3.5401,-3.5368,-3.5291,-3.5234,-3.5147,-3.5089,-3.5024,-3.4933,-3.4809,-3.4752,-3.4697,-3.4668,-3.4667,-3.4666,-3.4666,-3.4674,-3.4624,-3.4682,-3.4681,-3.4681,-3.468,-3.468,0,-3.5796,-3.5733,-3.5677,-3.5584,-3.5534,-3.5474,-3.5394,-3.5355,-3.53,-3.5222,-3.5161,-3.5081,-3.501,-3.4911,-3.4831,-3.4806,-3.4772,-3.4788,-3.4788,-3.4774,-3.4707,-3.4715,-3.4817,-3.4817,-3.4817,-3.4817,-3.4817,-3.4817,-3.584,-3.5797,-3.574,-3.5664,-3.56,-3.5536,-3.5495,-3.5435,-3.5372,-3.5288,-3.5228,-3.5164,-3.5076,-3.4989,-3.4919,-3.4891,-3.4865,-3.4891,-3.4853,-3.4792,-3.478,-3.4768,-3.4774,-3.4887,-3.4887,-3.4924,-3.4924,-3.4925]}]]